Regional Weather Roundup
Issued by NWS

Home | Current Version | Previous Version | Graphics & Text | Print | Product List | Glossary On
Versions: 1 2 3 4 5 6 7 8 9 10 11 12 13 14 15 16 17 18 19 20 21 22 23 24 25 26 27 28 29 30 31 32 33 34 35 36 37 38 39 40 41 42 43 44 45 46 47 48 49 50
519
ASUS45 KTFX 250010
RWRMT
MONTANA REGIONAL WEATHER ROUNDUP
NATIONAL WEATHER SERVICE GREAT FALLS MT
600 PM MDT WED MAY 24 2017

NOTE: "FAIR" INDICATES FEW OR NO CLOUDS BELOW 12000 FEET WITH NO
SIGNIFICANT WEATHER AND/OR OBSTRUCTIONS TO VISIBILITY.

MTZ001>007-043-250100-
WEST OF THE DIVIDE

CITY           SKY/WX    TMP DP  RH WIND       PRES   REMARKS
KALISPELL      CLOUDY    54  28  36 W18G29    29.62R
MISSOULA       MOSUNNY   60  23  24 W26G32    29.65R
BUTTE          SUNNY     56  10  16 W24G35    29.60R
MULLAN PASS    CLOUDY    38  22  52 VRB7      29.71R
ANACONDA         N/A     55  16  21 W24G33    29.60S
DEER LODGE       N/A     55  16  21 W18G25    29.62R
EUREKA           N/A     54  28  37 N10       29.63R
HAMILTON         N/A     57  16  19 W16G25    29.65F
RONAN            N/A     57  23  27 SW15      29.71R
$$

MTZ008-052>055-250100-
SOUTHWEST MONTANA

CITY           SKY/WX    TMP DP  RH WIND       PRES   REMARKS
BOZEMAN        SUNNY     64  12  13 W29G40    29.49R
DILLON         SUNNY     63  18  17 NW17G30   29.55S
W YELLOWSTONE  MOSUNNY   64  18  16 W9G30     29.52S
ENNIS          SUNNY     63  18  17 W14G28    29.60R
THREE FORKS      N/A     65   8  10 W25       29.57R
$$

MTZ009-010-012-014-046-048-049-054-250100-
EAST SLOPES AND CENTRAL MONTANA

CITY           SKY/WX    TMP DP  RH WIND       PRES   REMARKS
CUT BANK       SUNNY     54  22  28 W40G49    29.42R
GREAT FALLS    MOSUNNY   59  15  18 W35G46    29.46R
MALMSTROM AFB  SUNNY     59  18  20 W24G41    29.47R
HELENA         PTSUNNY   62  17  17 W28G43    29.54S
CHOTEAU          N/A     55  21  26 W30G41    29.48R
CONRAD           N/A     57  34  42 SW33      29.52S
$$

MTZ011-013-016-021-045-047-050-051-250100-
NORTH CENTRAL MONTANA

CITY           SKY/WX    TMP DP  RH WIND       PRES   REMARKS
HAVRE          SUNNY     64  16  15 W32G49    29.33R
LEWISTOWN      SUNNY     64  15  15 W28G40    29.41R
N BAR RANCH      N/A     63  10  13 NW32G44   29.43R
CHINOOK          N/A     64  16  15 W25G33    29.31R
FORT BENTON      N/A     63  18  17 MISG      29.42R
$$

MTZ017>020-022>027-061-062-250100-
NORTHEAST MONTANA

CITY           SKY/WX    TMP DP  RH WIND       PRES   REMARKS
GLASGOW        MOSUNNY   72  18  13 W24G37    29.27S
JORDAN           N/A     72  11   9 NW21      29.31R
SIDNEY         LGT RAIN  64  57  78 W9        29.33R
WOLF POINT     PTSUNNY   71  39  31 SE5       29.26F
MALTA          SUNNY     66  18  15 W31G38    29.30R
PLENTYWOOD       N/A     63  46  55 SW6       29.32R
$$

MTZ028>42-056>058-250100-
SOUTHCENTRAL AND SOUTHEAST MONTANA

CITY           SKY/WX    TMP DP  RH WIND       PRES   REMARKS
BAKER          LGT RAIN  59  55  87 N16       29.34R
BILLINGS       CLOUDY    66  31  27 NE7       29.41R
LIVINGSTON     CLOUDY    68  22  17 W26G37    29.45R
MILES CITY     MOSUNNY   73  33  23 N23G32    29.32R
BIG TIMBER     SUNNY     66  18  15 NW25G33   29.46S
FORSYTH          N/A     72  27  18 NW10      29.33R
LAUREL           N/A     65  34  31 CALM      29.46R
ROUNDUP          N/A     71  13  11 SW29      29.35R
$$

REGIONAL REPORTS...DAKOTAS

CITY           SKY/WX    TMP DP  RH WIND       PRES   REMARKS
WILLISTON      CLOUDY    64  57  78 W12       29.31R
MINOT          CLOUDY    70  35  27 SE20G37   29.36F
DICKINSON      PTSUNNY   68  35  29 SE31G37   29.31F
BEACH          DRIZZLE   61  59  94 NE10      29.36F
TIOGA          PTSUNNY   70  36  28 S26G35    29.34R
WATFORD CITY     N/A     72  43  35 S16G24    29.31F
BISMARCK       SUNNY     70  40  33 S23G33    29.44F
GRAND FORKS    MOSUNNY   67  41  38 SE24      29.60S
FARGO          CLOUDY    65  42  43 S15G23    29.62F
BUFFALO SD       N/A     75  44  33 SE35G43   29.21F
RAPID CITY     SUNNY     77  49  37 S22G30    29.36F
$$

REGIONAL REPORTS...WYOMING/IDAHO/WASHINGTON

CITY           SKY/WX    TMP DP  RH WIND       PRES   REMARKS
GILLETTE       SUNNY     80  43  26 SW20G28   29.31F
SHERIDAN       CLOUDY    69  47  45 NW36G44   29.34R
BUFFALO WY     MOSUNNY   81  34  18 W14G23    29.38R
CODY           SUNNY     76  24  14 W16G25    29.42R
YELLOWSTONE LA   N/A     57  24  28 W13G33    29.62F
IDAHO FALLS    MOSUNNY   71  20  14 W38G53    29.53F
SALMON         SUNNY     64  12  13 NW18G29   29.55S
BOISE          SUNNY     72  23  16 N18G29    29.63F
SPOKANE        CLOUDY    60  26  27 W18       29.72R
$$

REGIONAL REPORTS...ALBERTA

CITY           SKY/WX    TMP DP  RH WIND       PRES   REMARKS
EDMONTON       LGT RAIN  50  48  93 N22G32    29.42R
CALGARY        LGT RAIN  43  39  87 N38G53    29.38R FOG
LETHBRIDGE     LGT RAIN  43  39  87 W30G43    29.40R FOG
MEDICINE HAT   LGT RAIN  54  37  54 W33G46    29.24R
WATERTON GATE    N/A     46  25  42 W29G46      N/A
CARDSTON         N/A     45  32  61 NW23G40     N/A
MILK RIVER       N/A     55  25  30 NW39G49     N/A
$$

REGIONAL REPORTS...SASKATCHEWAN

CITY           SKY/WX    TMP DP  RH WIND       PRES   REMARKS
SWIFT CURRENT  PTSUNNY   57  32  38 W17G23    29.22F
REGINA         PTSUNNY   64  50  59 SE20G26   29.23F
SASKATOON      PTSUNNY   59  43  55 S16       29.17R
VAL MARIE        N/A     64  12  13 W31G41      N/A
ROCKGLEN         N/A     66  21  18 NW16G24     N/A
ASSINIBOIA       N/A     48  48 100 N31G40      N/A
$$




USA.gov is the U.S. government's official web portal to all federal, state and local government web resources and services.